Location: Unspecified
(45.6635°N, 122.4424°W)
Time: 08:41:21
(UTC+00:00)

CZ-3 Stage 3 - Visible Passes

Search period start: 20 January 2018 00:00
Search period end: 30 January 2018 00:00
Orbit: 427 x 34770 km, 31.0° (Epoch: 19 January)

Date Brightness Start Highest point End Pass type
(mag) Time Alt. Az. Time Alt. Az. Time Alt. Az.
22 Jan 5.1 01:48:12 10° SW 01:57:14 17° S 02:01:12 10° SE visible
22 Jan 6.9 21:12:40 10° SSW 22:06:22 16° SSE 22:20:08 10° SE visible
25 Jan 5.0 01:38:05 10° SW 01:47:55 18° S 01:52:00 10° SE visible
25 Jan 6.9 20:54:03 10° SSW 21:57:22 17° SSE 22:11:33 10° SE visible
28 Jan 6.9 20:34:27 10° SSW 21:48:20 18° SSE 22:02:52 10° SE visible
